Tracking 28790 objects as of 18-Apr-2024
HD Live streaming from Space Station
objects crossing your sky now

IRIDIUM 33 DEB

Track IRIDIUM 33 DEB now!
10-day predictions


NORAD ID: 35296
Int'l Code: 1997-051PL
Perigee: 648.3 km
Apogee: 660.4 km
Inclination: 86.3 °
Period: 97.7 minutes
Semi major axis: 7025 km
RCS: 0.0171 m2 (small)
Launch date: September 14, 1997
Source: United States (US)
Launch site: TYURATAM MISSILE AND SPACE COMPLEX (TTMTR)

Note: This is SATELLITE DEBRIS
Your satellite tracking list
Your tracking list is empty




NASA's NSSDC Master Catalog

Two Line Element Set (TLE):
1 35296U 97051PL  24108.61778503  .00055401  00000-0  82957-2 0  9997
2 35296  86.3015 224.9062 0008611 229.2404 130.8067 14.74354297789414
Source of the keplerian elements: AFSPC